Tracking 30510 objects as of 22-May-2025
HD Live streaming from Space Station
objects crossing your sky now

LEMUR 2 JOHNNYTRUONG

Track LEMUR 2 JOHNNYTRUONG now!
10-day predictions
LEMUR 2 JOHNNYTRUONG is classified as:


NORAD ID: 59146
Int'l Code: 2024-043BA
Perigee: 456.5 km
Apogee: 467.4 km
Inclination: 97.5 °
Period: 93.7 minutes
Semi major axis: 6832 km
RCS: Unknown
Launch date: March 4, 2024
Source: United States (US)
Launch site: AIR FORCE WESTERN TEST RANGE (AFWTR)
Your satellite tracking list
Your tracking list is empty




NASA's NSSDC Master Catalog

Two Line Element Set (TLE):
1 59146U 24043BA  25141.88036277  .00013780  00000-0  38155-3 0  9996
2 59146  97.5013 273.5218 0007955 151.0006 209.1682 15.37071065 67544
Source of the keplerian elements: AFSPC